This is the latest recevied weather packets stored in our database for station/object WA3NOA-2. If no packets are shown the sender has not sent any weather packets the latest 1 day(s).
| Time | Temp. | Humidity | Pressure | Rain* | Wind** | Luminosity | Snow |
|---|---|---|---|---|---|---|---|
| 1778019726 | 25° C | 42% | 1002.4 hPa | 0 mm | 2.68 m/s, 261° | - | - |
| 1778019488 | 25° C | 41% | 1002.5 hPa | 0 mm | 3.58 m/s, 239° | - | - |
| 1778019426 | 25° C | 41% | 1002.5 hPa | 0 mm | 4.47 m/s, 227° | - | - |
| 1778019126 | 25.56° C | 41% | 1002.4 hPa | 0 mm | 3.13 m/s, 256° | - | - |
| 1778018826 | 25.56° C | 40% | 1002.5 hPa | 0 mm | 0.45 m/s, 340° | - | - |
| 1778018587 | 25.56° C | 40% | 1002.5 hPa | 0 mm | 3.58 m/s, 273° | - | - |
| 1778018526 | 25.56° C | 41% | 1002.4 hPa | 0 mm | 1.34 m/s, 269° | - | - |
| 1778018226 | 25.56° C | 40% | 1003.1 hPa | 0 mm | 4.47 m/s, 256° | - | - |
| 1778017926 | 26.11° C | 40% | 1002.4 hPa | 0 mm | 4.02 m/s, 274° | - | - |
| 1778017687 | 26.11° C | 40% | 1002.3 hPa | 0 mm | 0.89 m/s, 270° | - | - |
| 1778017626 | 26.11° C | 40% | 1002.4 hPa | 0 mm | 2.68 m/s, 206° | - | - |
| 1778017326 | 26.11° C | 40% | 1002.3 hPa | 0 mm | 4.47 m/s, 273° | - | - |
| 1778017026 | 26.11° C | 40% | 1002.2 hPa | 0 mm | 0 m/s | - | - |
| 1778016787 | 26.11° C | 39% | 1002.5 hPa | 0 mm | 0.89 m/s, 272° | - | - |
| 1778016726 | 26.11° C | 40% | 1002.5 hPa | 0 mm | 4.47 m/s, 270° | - | - |
| 1778016426 | 26.11° C | 39% | 1002.3 hPa | 0 mm | 2.68 m/s, 271° | - | - |
| 1778016126 | 26.11° C | 39% | 1002.2 hPa | 0 mm | 6.71 m/s, 245° | - | - |
| 1778015887 | 26.11° C | 39% | 1002.3 hPa | 0 mm | 2.24 m/s, 216° | - | - |
| 1778015826 | 26.11° C | 38% | 1002.3 hPa | 0 mm | 1.79 m/s, 283° | - | - |
| 1778015526 | 26.11° C | 38% | 1002.4 hPa | 0 mm | 3.13 m/s, 272° | - | - |
| 1778015226 | 26.11° C | 38% | 1002.4 hPa | 0 mm | 8.49 m/s, 217° | - | - |
| 1778014988 | 26.11° C | 38% | 1002.4 hPa | 0 mm | 4.47 m/s, 254° | - | - |
| 1778014926 | 26.11° C | 37% | 1002.4 hPa | 0 mm | 1.34 m/s, 283° | - | - |
| 1778014626 | 26.11° C | 38% | 1002.2 hPa | 0 mm | 1.34 m/s, 291° | - | - |
| 1778014326 | 26.11° C | 38% | 1002.4 hPa | 0 mm | 1.79 m/s, 265° | - | - |
* Rain latest hour (hover to see other rain measurements)
** Current wind speed in m/s (hover to see current wind gust speed)